Flag Weather past 2 weeks in Kinshasa, Congo Dem.Rep.

Now
72 °F

Clear.


Feels Like: 67 °F
Forecast: 72 / 89 °F
Wind: No wind

Location: Brazzaville / Maya-Maya

Current Time: Nov 28, 2014 at 2:43:07 AM

Latest Report: Nov 28, 2014 at 1:00 AM


Visibility: 10 mi

Pressure: 29.92 "Hg

Humidity: 94%

Dew point: 70 °F

Location of KinshasaLocation

Historic Weather in Kinshasa — Graph

°F

Kinshasa temperature yesterday

Maximum temperature yesterday: 79 °F (at 12:00 AM)
Minimum temperature yesterday: 70 °F (at 7:59 AM)
Average temperature yesterday: 75 °F

Past Weeks' High & Low Weather Summary

 TemperatureHumidityPressure
High91 °F (Nov 26, 3:00 PM)100% (Nov 15, 11:00 AM)30.04 "Hg (Nov 15, 11:00 AM)
Low68 °F (Nov 25, 3:00 AM)46% (Nov 22, 4:00 PM)29.71 "Hg (Nov 17, 4:00 PM)
Average78 °F81%29.90 "Hg
* Reported Nov 13 1:00 AM — Nov 28 1:00 AM, Kinshasa, Weather by CustomWeather, © 2014

Note: Actual official high and low records may vary slightly from our data, if they occured in-between our weather recording intervals... More about our weather records

Advertising

Kinshasa weather history for previous 24 hours

 ConditionsComfort  
Time TempWeatherWind HumidityBarometerVisibility
1:00 AM
Nov 28
72 °FClear.No wind94%29.92 "Hg10 mi
12:00 AM72 °FClear.No wind94%29.95 "Hg10 mi
11:00 PM
Nov 27
73 °FClear.5 mph89%29.95 "Hg10 mi
10:00 PM73 °FClear.7 mph89%29.95 "Hg10 mi
9:00 PM73 °FClear.5 mph89%29.92 "Hg10 mi
8:00 PM75 °FPassing clouds.5 mph83%29.92 "Hg6 mi
7:00 PM75 °FPassing clouds.2 mph83%29.89 "HgN/A
6:00 PM75 °FPassing clouds.5 mph83%29.86 "HgN/A
5:00 PM77 °FScattered clouds.5 mph79%29.86 "HgN/A
4:00 PM75 °FScattered clouds.7 mph83%29.83 "HgN/A
3:00 PM75 °FLight rain. Scattered clouds.5 mph89%29.86 "HgN/A
2:00 PM75 °FLight rain. Broken clouds.5 mph89%29.86 "HgN/A
1:00 PM73 °FLight rain. Partly sunny.12 mph94%29.89 "HgN/A
12:53 PM73 °FLight rain. Partly sunny.9 mph94%29.89 "HgN/A
12:00 PM73 °FThunderstorms. Scattered clouds.5 mph94%29.92 "HgN/A
11:00 AM72 °FThunderstorms. Scattered clouds.No wind94%29.95 "HgN/A
10:00 AM72 °FThunderstorms. Scattered clouds.7 mph94%29.98 "Hg4 mi
9:00 AM72 °FThunderstorms. Scattered clouds.9 mph94%30.01 "Hg5 mi
8:00 AM70 °FThunderstorms. Partly sunny.14 mph100%30.01 "Hg2 mi
7:59 AM70 °FThunderstorms. Partly sunny.12 mph100%30.01 "Hg2 mi
7:00 AM75 °FThunderstorms. Mostly cloudy.14 mph89%29.95 "Hg2 mi
6:48 AM77 °FThunderstorms. Mostly cloudy.14 mph89%29.95 "Hg2 mi
6:00 AM77 °FThunderstorms. More clouds than sun.2 mph89%29.92 "Hg4 mi
5:00 AM77 °FLight rain. Passing clouds.No wind83%29.92 "Hg5 mi
4:00 AM77 °FPassing clouds.2 mph83%29.89 "Hg5 mi
3:00 AM77 °FPassing clouds.2 mph83%29.86 "Hg5 mi
2:58 AM77 °FPassing clouds.2 mph83%29.86 "Hg5 mi
2:00 AM73 °FThunderstorms. Passing clouds.2 mph89%29.86 "Hg5 mi
Weather by CustomWeather, © 2014

See weather overviewHow to use our weather pages